| time (UTC) | temp C | wind direction | speed KPH | gust KPH | rain 1hr cm | rain 24hr cm | rain mn cm | humidity % | barometer mb |
| 20260504215107 | 23 | 142 | 8.0 | 9.7 | 0.00 | 0.00 | 0.00 | 41 | 1009.5 |
| 20260504214603 | 23 | 269 | 8.0 | 9.7 | 0.00 | 0.00 | 0.00 | 42 | 1009.6 |
| 20260504214059 | 23 | 191 | 8.0 | 14.5 | 0.00 | 0.00 | 0.00 | 41 | 1009.4 |
| 20260504213555 | 23 | 182 | 4.8 | 4.8 | 0.00 | 0.00 | 0.00 | 42 | 1009.7 |
| 20260504213053 | 22 | 172 | 8.0 | 14.5 | 0.00 | 0.00 | 0.00 | 41 | 1009.6 |
| 20260504212548 | 23 | 172 | 9.7 | 16.1 | 0.00 | 0.00 | 0.00 | 41 | 1009.5 |
| 20260504212046 | 23 | 153 | 4.8 | 8.0 | 0.00 | 0.00 | 0.00 | 41 | 1009.8 |
| 20260504211542 | 23 | 284 | 3.2 | 4.8 | 0.00 | 0.00 | 0.00 | 41 | 1009.5 |
| 20260504211039 | 23 | 208 | 8.0 | 11.3 | 0.00 | 0.00 | 0.00 | 41 | 1009.4 |
| 20260504210536 | 23 | 199 | 4.8 | 4.8 | 0.00 | 0.00 | 0.00 | 41 | 1009.2 |
| 20260504210033 | 23 | 253 | 3.2 | 4.8 | 0.00 | 0.00 | 0.00 | 41 | 1009.3 |
| 20260504205531 | 23 | 276 | 8.0 | 8.0 | 0.00 | 0.00 | 0.00 | 40 | 1009.5 |
| 20260504205029 | 23 | 180 | 6.4 | 8.0 | 0.00 | 0.00 | 0.00 | 40 | 1009.4 |
| 20260504204526 | 23 | 193 | 4.8 | 4.8 | 0.00 | 0.00 | 0.00 | 41 | 1009.4 |
| 20260504204026 | 23 | 229 | 8.0 | 9.7 | 0.00 | 0.00 | 0.00 | 38 | 1009.4 |
| 20260504203523 | 23 | 152 | 6.4 | 9.7 | 0.00 | 0.00 | 0.00 | 41 | 1009.4 |
| 20260504203020 | 23 | 129 | 6.4 | 8.0 | 0.00 | 0.00 | 0.00 | 40 | 1009.3 |
| 20260504202516 | 23 | 183 | 8.0 | 11.3 | 0.00 | 0.00 | 0.00 | 41 | 1009.4 |
| 20260504202013 | 23 | 196 | 11.3 | 12.9 | 0.00 | 0.00 | 0.00 | 40 | 1009.9 |
| 20260504201510 | 23 | 180 | 6.4 | 9.7 | 0.00 | 0.00 | 0.00 | 41 | 1009.9 |
| 20260504201008 | 23 | 171 | 6.4 | 11.3 | 0.00 | 0.00 | 0.00 | 40 | 1009.7 |
| 20260504200504 | 23 | 190 | 3.2 | 3.2 | 0.00 | 0.00 | 0.00 | 41 | 1009.7 |
| 20260504200000 | 23 | 220 | 6.4 | 8.0 | 0.00 | 0.00 | 0.00 | 40 | 1010.0 |
| 20260504195456 | 23 | 155 | 8.0 | 9.7 | 0.00 | 0.00 | 0.00 | 39 | 1010.0 |
| 20260504194953 | 23 | 214 | 8.0 | 14.5 | 0.00 | 0.00 | 0.00 | 39 | 1010.3 |
| 20260504194449 | 23 | 249 | 4.8 | 8.0 | 0.00 | 0.00 | 0.00 | 40 | 1010.2 |
| 20260504193945 | 23 | 183 | 11.3 | 14.5 | 0.00 | 0.00 | 0.00 | 41 | 1010.4 |
| 20260504193443 | 22 | 143 | 8.0 | 9.7 | 0.00 | 0.00 | 0.00 | 41 | 1010.3 |
| 20260504192942 | 22 | 142 | 9.7 | 16.1 | 0.00 | 0.00 | 0.00 | 41 | 1010.7 |
| 20260504192438 | 23 | 226 | 9.7 | 11.3 | 0.00 | 0.00 | 0.00 | 41 | 1010.4 |
| 20260504191937 | 22 | 189 | 4.8 | 4.8 | 0.00 | 0.00 | 0.00 | 43 | 1010.7 |
| 20260504191435 | 22 | 209 | 4.8 | 8.0 | 0.00 | 0.00 | 0.00 | 42 | 1010.7 |
| 20260504190935 | 22 | 172 | 12.9 | 17.7 | 0.00 | 0.00 | 0.00 | 41 | 1010.8 |
| 20260504190432 | 22 | 146 | 8.0 | 11.3 | 0.00 | 0.00 | 0.00 | 41 | 1010.8 |
| 20260504185928 | 23 | 201 | 8.0 | 9.7 | 0.00 | 0.00 | 0.00 | 41 | 1011.0 |
| 20260504185426 | 22 | 195 | 9.7 | 12.9 | 0.00 | 0.00 | 0.00 | 40 | 1010.9 |
| 20260504184921 | 22 | 178 | 8.0 | 9.7 | 0.00 | 0.00 | 0.00 | 41 | 1011.1 |
| 20260504184417 | 22 | 198 | 8.0 | 12.9 | 0.00 | 0.00 | 0.00 | 42 | 1011.1 |
| 20260504183914 | 22 | 192 | 9.7 | 11.3 | 0.00 | 0.00 | 0.00 | 44 | 1011.2 |
| 20260504183411 | 22 | 212 | 8.0 | 11.3 | 0.00 | 0.00 | 0.00 | 42 | 1011.2 |
| 20260504182909 | 22 | 202 | 6.4 | 9.7 | 0.00 | 0.00 | 0.00 | 43 | 1011.5 |
| 20260504182405 | 22 | 162 | 9.7 | 11.3 | 0.00 | 0.00 | 0.00 | 42 | 1011.5 |
| 20260504181902 | 22 | 148 | 12.9 | 20.9 | 0.00 | 0.00 | 0.00 | 41 | 1011.7 |
| 20260504181400 | 22 | 226 | 4.8 | 8.0 | 0.00 | 0.00 | 0.00 | 42 | 1011.6 |
| 20260504180858 | 23 | 183 | 11.3 | 16.1 | 0.00 | 0.00 | 0.00 | 39 | 1011.6 |
| 20260504180356 | 22 | 247 | 4.8 | 9.7 | 0.00 | 0.00 | 0.00 | 41 | 1011.5 |
| 20260504175855 | 22 | 242 | 4.8 | 8.0 | 0.00 | 0.00 | 0.00 | 41 | 1011.8 |
| 20260504175351 | 22 | 156 | 14.5 | 20.9 | 0.00 | 0.00 | 0.00 | 41 | 1011.9 |
| 20260504174849 | 22 | 194 | 4.8 | 8.0 | 0.00 | 0.00 | 0.00 | 42 | 1012.1 |
| 20260504174346 | 22 | 138 | 6.4 | 11.3 | 0.00 | 0.00 | 0.00 | 40 | 1011.9 |
| 20260504173843 | 21 | 169 | 4.8 | 8.0 | 0.00 | 0.00 | 0.00 | 41 | 1012.1 |
| 20260504173340 | 21 | 195 | 12.9 | 14.5 | 0.00 | 0.00 | 0.00 | 41 | 1012.1 |
| 20260504172837 | 21 | 141 | 14.5 | 16.1 | 0.00 | 0.00 | 0.00 | 41 | 1012.1 |
| 20260504172333 | 21 | 133 | 8.0 | 16.1 | 0.00 | 0.00 | 0.00 | 42 | 1012.2 |
| 20260504171829 | 21 | 281 | 6.4 | 9.7 | 0.00 | 0.00 | 0.00 | 43 | 1012.4 |
| 20260504171327 | 21 | 187 | 6.4 | 11.3 | 0.00 | 0.00 | 0.00 | 41 | 1012.3 |
| 20260504170824 | 20 | 25 | 6.4 | 12.9 | 0.00 | 0.00 | 0.00 | 42 | 1012.5 |
| 20260504170320 | 21 | 222 | 11.3 | 14.5 | 0.00 | 0.00 | 0.00 | 41 | 1012.7 |
| 20260504160239 | 20 | 109 | 6.4 | 9.7 | 0.00 | 0.00 | 0.00 | 44 | 1013.6 |
| 20260504150704 | 18 | 140 | 0.0 | 0.0 | 0.00 | 0.00 | 0.00 | 43 | 1014.2 |
| 20260504150201 | 18 | 202 | 3.2 | 8.0 | 0.00 | 0.00 | 0.00 | 42 | 1014.2 |
| 20260504141130 | 17 | 323 | 1.6 | 1.6 | 0.00 | 0.00 | 0.00 | 47 | 1014.7 |
| 20260504140627 | 16 | 243 | 3.2 | 3.2 | 0.00 | 0.00 | 0.00 | 49 | 1014.5 |
| 20260504140122 | 16 | 304 | 1.6 | 1.6 | 0.00 | 0.00 | 0.00 | 47 | 1014.7 |
| 20260504130551 | 12 | 327 | 3.2 | 4.8 | 0.00 | 0.00 | 0.00 | 52 | 1015.2 |
| 20260504110438 | 7 | 344 | 0.0 | 0.0 | 0.00 | 0.00 | 0.00 | 70 | 1015.4 |
| 20260504100354 | 5 | 294 | 0.0 | 0.0 | 0.00 | 0.00 | 0.00 | 72 | 1015.6 |
| 20260504081748 | 6 | 346 | 0.0 | 1.6 | 0.00 | 0.00 | 0.00 | 66 | 1016.0 |
| 20260504081244 | 6 | 318 | 0.0 | 0.0 | 0.00 | 0.00 | 0.00 | 66 | 1016.0 |
| 20260504080741 | 7 | 324 | 0.0 | 0.0 | 0.00 | 0.00 | 0.00 | 64 | 1016.1 |
| 20260504080237 | 7 | 316 | 0.0 | 0.0 | 0.00 | 0.00 | 0.00 | 64 | 1016.0 |
| 20260504070205 | 7 | 310 | 0.0 | 0.0 | 0.00 | 0.00 | 0.00 | 66 | 1016.0 |
| 20260504060125 | 6 | 320 | 0.0 | 0.0 | 0.00 | 0.00 | 0.00 | 71 | 1015.9 |
| 20260504050554 | 8 | 310 | 3.2 | 3.2 | 0.00 | 0.00 | 0.00 | 59 | 1016.2 |
| 20260504045547 | 8 | 323 | 0.0 | 0.0 | 0.00 | 0.00 | 0.00 | 62 | 1016.0 |
| 20260504045043 | 8 | 315 | 0.0 | 0.0 | 0.00 | 0.00 | 0.00 | 62 | 1016.2 |
| 20260504044540 | 8 | 291 | 0.0 | 0.0 | 0.00 | 0.00 | 0.00 | 61 | 1016.2 |
| 20260504044037 | 8 | 320 | 0.0 | 0.0 | 0.00 | 0.00 | 0.00 | 59 | 1016.1 |
| 20260504043534 | 8 | 308 | 0.0 | 0.0 | 0.00 | 0.00 | 0.00 | 59 | 1015.8 |
| 20260504043032 | 8 | 319 | 0.0 | 0.0 | 0.00 | 0.00 | 0.00 | 60 | 1015.9 |
| 20260504042529 | 8 | 317 | 0.0 | 0.0 | 0.00 | 0.00 | 0.00 | 59 | 1015.9 |
| 20260504042026 | 8 | 324 | 0.0 | 0.0 | 0.00 | 0.00 | 0.00 | 57 | 1016.0 |
| 20260504041521 | 8 | 319 | 0.0 | 1.6 | 0.00 | 0.00 | 0.00 | 58 | 1016.1 |
| 20260504041017 | 8 | 322 | 0.0 | 0.0 | 0.00 | 0.00 | 0.00 | 59 | 1016.1 |
| 20260504040515 | 9 | 318 | 0.0 | 0.0 | 0.00 | 0.00 | 0.00 | 57 | 1016.0 |
| 20260504040012 | 9 | 318 | 0.0 | 0.0 | 0.00 | 0.00 | 0.00 | 56 | 1016.0 |
| 20260504035509 | 9 | 308 | 1.6 | 1.6 | 0.00 | 0.00 | 0.00 | 57 | 1015.9 |
| 20260504035005 | 10 | 308 | 0.0 | 0.0 | 0.00 | 0.00 | 0.00 | 58 | 1015.9 |
| 20260504034503 | 9 | 306 | 1.6 | 1.6 | 0.00 | 0.00 | 0.00 | 57 | 1015.6 |
| 20260504033959 | 10 | 318 | 0.0 | 0.0 | 0.00 | 0.00 | 0.00 | 56 | 1015.6 |
| 20260504033457 | 10 | 229 | 3.2 | 3.2 | 0.00 | 0.00 | 0.00 | 57 | 1015.8 |
| 20260504032954 | 10 | 294 | 1.6 | 1.6 | 0.00 | 0.00 | 0.00 | 56 | 1015.6 |
| 20260504032451 | 10 | 305 | 1.6 | 1.6 | 0.00 | 0.00 | 0.00 | 56 | 1015.8 |
| 20260504031948 | 10 | 315 | 0.0 | 0.0 | 0.00 | 0.00 | 0.00 | 55 | 1015.8 |
| 20260504031445 | 10 | 308 | 0.0 | 0.0 | 0.00 | 0.00 | 0.00 | 54 | 1015.6 |
| 20260504030941 | 10 | 321 | 0.0 | 0.0 | 0.00 | 0.00 | 0.00 | 54 | 1015.4 |
| 20260504030438 | 10 | 323 | 0.0 | 0.0 | 0.00 | 0.00 | 0.00 | 53 | 1015.6 |
| 20260504025934 | 10 | 313 | 0.0 | 0.0 | 0.00 | 0.00 | 0.00 | 54 | 1015.7 |
| 20260504025431 | 10 | 312 | 1.6 | 1.6 | 0.00 | 0.00 | 0.00 | 53 | 1015.5 |
| 20260504024929 | 10 | 295 | 0.0 | 0.0 | 0.00 | 0.00 | 0.00 | 54 | 1015.5 |
| 20260504024426 | 10 | 316 | 0.0 | 1.6 | 0.00 | 0.00 | 0.00 | 56 | 1015.5 |
| 20260504023922 | 10 | 304 | 0.0 | 1.6 | 0.00 | 0.00 | 0.00 | 56 | 1015.6 |
| 20260504023419 | 10 | 304 | 0.0 | 0.0 | 0.00 | 0.00 | 0.00 | 54 | 1015.6 |
| 20260504022914 | 10 | 320 | 0.0 | 0.0 | 0.00 | 0.00 | 0.00 | 53 | 1015.6 |
| 20260504022411 | 10 | 324 | 0.0 | 0.0 | 0.00 | 0.00 | 0.00 | 52 | 1015.3 |
| 20260504021908 | 10 | 308 | 0.0 | 0.0 | 0.00 | 0.00 | 0.00 | 52 | 1015.5 |
| 20260504021405 | 10 | 322 | 0.0 | 0.0 | 0.00 | 0.00 | 0.00 | 52 | 1015.5 |
| 20260504020902 | 10 | 324 | 0.0 | 0.0 | 0.00 | 0.00 | 0.00 | 52 | 1015.5 |
| 20260504020359 | 10 | 330 | 0.0 | 0.0 | 0.00 | 0.00 | 0.00 | 51 | 1015.4 |
| 20260504015855 | 11 | 329 | 0.0 | 0.0 | 0.00 | 0.00 | 0.00 | 51 | 1015.5 |
| 20260504015351 | 11 | 321 | 0.0 | 0.0 | 0.00 | 0.00 | 0.00 | 50 | 1015.5 |
| 20260504014847 | 11 | 317 | 0.0 | 0.0 | 0.00 | 0.00 | 0.00 | 50 | 1015.3 |
| 20260504014343 | 11 | 310 | 1.6 | 1.6 | 0.00 | 0.00 | 0.00 | 48 | 1015.5 |
| 20260504013841 | 11 | 308 | 0.0 | 1.6 | 0.00 | 0.00 | 0.00 | 48 | 1015.4 |
| 20260504013339 | 11 | 306 | 0.0 | 0.0 | 0.00 | 0.00 | 0.00 | 48 | 1015.4 |
| 20260504012835 | 12 | 279 | 1.6 | 1.6 | 0.00 | 0.00 | 0.00 | 47 | 1015.4 |
| 20260504012333 | 12 | 309 | 0.0 | 1.6 | 0.00 | 0.00 | 0.00 | 46 | 1015.3 |
| 20260504011830 | 12 | 318 | 0.0 | 0.0 | 0.00 | 0.00 | 0.00 | 46 | 1015.3 |
| 20260504011327 | 12 | 317 | 0.0 | 1.6 | 0.00 | 0.00 | 0.00 | 46 | 1015.1 |
| 20260504010823 | 12 | 310 | 1.6 | 1.6 | 0.00 | 0.00 | 0.00 | 45 | 1015.1 |
| 20260504010318 | 12 | 325 | 0.0 | 0.0 | 0.00 | 0.00 | 0.00 | 46 | 1015.3 |
| 20260504005815 | 12 | 320 | 0.0 | 0.0 | 0.00 | 0.00 | 0.00 | 45 | 1015.2 |
| 20260504005312 | 12 | 311 | 0.0 | 0.0 | 0.00 | 0.00 | 0.00 | 45 | 1015.0 |
| 20260504004810 | 12 | 320 | 0.0 | 0.0 | 0.00 | 0.00 | 0.00 | 45 | 1015.1 |
| 20260504004307 | 12 | 256 | 0.0 | 1.6 | 0.00 | 0.00 | 0.00 | 43 | 1015.0 |
| 20260504003803 | 13 | 322 | 0.0 | 0.0 | 0.00 | 0.00 | 0.00 | 43 | 1015.1 |
| 20260504003300 | 13 | 292 | 1.6 | 1.6 | 0.00 | 0.00 | 0.00 | 43 | 1015.1 |
| 20260504002757 | 13 | 267 | 1.6 | 1.6 | 0.00 | 0.00 | 0.00 | 44 | 1014.8 |
| 20260504002254 | 13 | 323 | 0.0 | 0.0 | 0.00 | 0.00 | 0.00 | 42 | 1015.0 |
| 20260504001752 | 13 | 317 | 0.0 | 1.6 | 0.00 | 0.00 | 0.00 | 42 | 1014.8 |
| 20260504001248 | 13 | 305 | 0.0 | 0.0 | 0.00 | 0.00 | 0.00 | 41 | 1014.7 |
| 20260504000745 | 13 | 274 | 1.6 | 3.2 | 0.00 | 0.00 | 0.00 | 41 | 1014.8 |
| 20260504000242 | 13 | 236 | 3.2 | 3.2 | 0.00 | 0.00 | 0.00 | 40 | 1014.7 |
| 20260503235740 | 14 | 266 | 4.8 | 8.0 | 0.00 | 0.00 | 0.00 | 40 | 1014.7 |
| 20260503235237 | 14 | 319 | 1.6 | 1.6 | 0.00 | 0.00 | 0.00 | 39 | 1014.7 |
| 20260503234735 | 15 | 308 | 1.6 | 3.2 | 0.00 | 0.00 | 0.00 | 39 | 1014.6 |
| 20260503234233 | 15 | 312 | 1.6 | 3.2 | 0.00 | 0.00 | 0.00 | 38 | 1014.7 |
| 20260503233730 | 15 | 257 | 1.6 | 4.8 | 0.00 | 0.00 | 0.00 | 39 | 1014.6 |
| 20260503233225 | 15 | 293 | 1.6 | 1.6 | 0.00 | 0.00 | 0.00 | 39 | 1014.3 |
| 20260503232722 | 15 | 305 | 1.6 | 1.6 | 0.00 | 0.00 | 0.00 | 38 | 1014.5 |
| 20260503232220 | 15 | 289 | 3.2 | 3.2 | 0.00 | 0.00 | 0.00 | 37 | 1014.4 |
| 20260503231718 | 15 | 296 | 1.6 | 1.6 | 0.00 | 0.00 | 0.00 | 37 | 1014.5 |
| 20260503231214 | 15 | 312 | 6.4 | 8.0 | 0.00 | 0.00 | 0.00 | 38 | 1014.4 |
| 20260503230710 | 15 | 255 | 1.6 | 1.6 | 0.00 | 0.00 | 0.00 | 38 | 1014.6 |
| 20260503230208 | 15 | 238 | 8.0 | 11.3 | 0.00 | 0.00 | 0.00 | 36 | 1014.5 |
| 20260503225705 | 15 | 217 | 3.2 | 4.8 | 0.00 | 0.00 | 0.00 | 37 | 1014.2 |
| 20260503225205 | 15 | 283 | 3.2 | 4.8 | 0.00 | 0.00 | 0.00 | 37 | 1014.3 |
| 20260503224703 | 15 | 318 | 1.6 | 3.2 | 0.00 | 0.00 | 0.00 | 37 | 1014.4 |
| 20260503224200 | 15 | 268 | 1.6 | 3.2 | 0.00 | 0.00 | 0.00 | 37 | 1014.4 |
| 20260503223658 | 15 | 297 | 1.6 | 1.6 | 0.00 | 0.00 | 0.00 | 37 | 1014.5 |
| 20260503223155 | 15 | 144 | 4.8 | 4.8 | 0.00 | 0.00 | 0.00 | 36 | 1014.4 |
| 20260503222652 | 15 | 262 | 4.8 | 11.3 | 0.00 | 0.00 | 0.00 | 36 | 1014.4 |
| 20260503222149 | 16 | 279 | 4.8 | 4.8 | 0.00 | 0.00 | 0.00 | 35 | 1014.5 |
| 20260503221648 | 16 | 324 | 8.0 | 12.9 | 0.00 | 0.00 | 0.00 | 34 | 1014.3 |
| 20260503221144 | 16 | 304 | 8.0 | 9.7 | 0.00 | 0.00 | 0.00 | 35 | 1014.2 |
| 20260503220641 | 16 | 293 | 3.2 | 3.2 | 0.00 | 0.00 | 0.00 | 36 | 1014.3 |
| 20260503220138 | 16 | 193 | 6.4 | 9.7 | 0.00 | 0.00 | 0.00 | 36 | 1014.3 |
| 20260503215635 | 16 | 249 | 11.3 | 12.9 | 0.00 | 0.00 | 0.00 | 34 | 1014.4 |